[[{"header":{"parameterUnit":"m.s-1","parameterCategory":1,"la1":30.2991,"la2":30.254,"lo1":-89.0895,"lo2":-89.0444,"dy":0.0017,"dx":0.0017,"nx":28,"ny":28,"refTime":"2023-10-05T21:00:00:Z","depth":0,"parameterNumber":2,"parameterNumberName":"U-component_of_WINDS"},"data":[0,0,0,0,0,0,0,0,0,0,0,0,0,0,0,0,0,0,0,0,0,0,0,0,0,0,0,0,0,0,0,0,0,0,0,0,0,0,0,0,0,0,0,0,0,0,0,0,0,0,0,0,0,0,0,0,0,0,0.2996,0.2998,0,0.3147,0.3149,0.315,0.3236,0.3236,0.3237,0.3237,0.3394,0.3398,0.3402,0,0,0,0,0,0,0,0,0,0,0,0,0,0.2784,0.2787,0.2996,0.2998,0.3,0.3147,0.3149,0.3151,0.3236,0.3236,0.3237,0.3237,0.3393,0.3398,0.3403,0,0,0,0,0,0,0,0,0,0,0,0,0,0.2899,0.2788,0.2996,0.306,0.3067,0.3146,0.3149,0.3151,0.3236,0.3236,0.3237,0.3237,0.3392,0.3397,0.3403,0.3431,0,0,0.3421,0.3424,0,0,0,0,0,0,0,0,0.2893,0.2907,0.3049,0.3056,0.3064,0.3173,0.3132,0.3245,0.3236,0.3172,0.3237,0.3237,0.3321,0.3332,0.336,0.3438,0.3445,0.3422,0.3425,0.3428,0.3429,0,0,0,0,0,0,0,0.2885,0.2901,0.3056,0.305,0.306,0.3082,0.3099,0.3154,0.3242,0.3178,0.3184,0.3201,0.3325,0.3354,0.3364,0.3447,0.3422,0.3427,0.343,0.3433,0.3556,0.3556,0,0,0,0,0,0,0.2866,0.2894,0.3051,0.306,0.2977,0.3085,0.3104,0.3138,0.3242,0.3258,0.32,0.3204,0.3344,0.3357,0.337,0.3409,0.3428,0.3433,0.3437,0.3556,0.3556,0.3556,0,0,0,0,0,0,0.2861,0.2879,0.3045,0.2979,0.3002,0.3089,0.3125,0.314,0.317,0.3259,0.3275,0.3213,0.3345,0.3362,0.3415,0.3416,0.3436,0.3441,0.3557,0.3556,0.3556,0.3488,0,0,0,0,0,0,0.2854,0.2877,0.2888,0.2978,0.3005,0.3086,0.3125,0.3143,0.3179,0.3186,0.3276,0.3291,0.3346,0.3406,0.3421,0.3425,0.3446,0.3557,0.3556,0.3556,0.3491,0.3485,0.3481,0,0,0,0,0,0.2847,0.2863,0.2888,0.2906,0.302,0.3086,0.3102,0.3164,0.3179,0.3191,0.3248,0.3288,0.3413,0.341,0.3428,0.3434,0.3557,0.3557,0.3556,0.3493,0.3486,0.3481,0,0,0,0,0,0,0.2772,0.2876,0.2905,0.2951,0.3009,0.3101,0.3118,0.3155,0.3211,0.3215,0.3291,0.331,0.3356,0.3401,0.3395,0.3466,0.349,0.3492,0.3435,0.343,0.3425,0.3414,0.3451,0,0,0,0,0,0.276,0.2804,0.2894,0.2926,0.2954,0.303,0.3061,0.3104,0.3168,0.3193,0.3254,0.3315,0.3368,0.3402,0.3455,0.3497,0.3518,0.351,0.3505,0.35,0.3502,0.3527,0.3524,0.3554,0.3554,0.3554,0,0,0.2738,0.28,0.2824,0.2913,0.2963,0.3007,0.3051,0.3096,0.313,0.32,0.3254,0.3301,0.3374,0.3421,0.3445,0.3459,0.3498,0.35,0.3495,0.35,0.3526,0.3523,0.3521,0.3553,0.3553,0.3554,0,0,0.2719,0.2771,0.2804,0.2852,0.2927,0.2978,0.2985,0.3071,0.3104,0.3159,0.3213,0.3255,0.3344,0.3394,0.3431,0.343,0.3469,0.3445,0.342,0.3444,0.3441,0.344,0.3439,0.3438,0.3447,0.3446,0.3446,0,0.2682,0.2751,0.2816,0.2858,0.2895,0.296,0.2994,0.3038,0.3126,0.3151,0.3166,0.3279,0.3333,0.3392,0.3392,0.342,0.3431,0.3436,0.3436,0.3435,0.3435,0.3435,0.3435,0.3443,0.3443,0.3444,0.3444,0,0.2701,0.2748,0.2766,0.2848,0.2888,0.2925,0.2996,0.3029,0.3068,0.3117,0.3172,0.3238,0.3306,0.3323,0.3363,0.3388,0.3395,0.3422,0.3447,0.3427,0.3429,0.343,0.3438,0.344,0.3441,0.3441,0,0,0.2641,0.2758,0.2763,0.2801,0.2888,0.2926,0.2966,0.3032,0.3058,0.3117,0.3153,0.3226,0.3251,0.3293,0.3339,0.3359,0.3354,0.3384,0.3387,0.3376,0.3386,0.3365,0.3364,0.338,0.338,0.338,0.338,0,0.2635,0.271,0.277,0.2823,0.2867,0.2928,0.2963,0.302,0.3067,0.3112,0.3164,0.3215,0.3244,0.327,0.3293,0.3349,0.3357,0.335,0.3414,0.3416,0.3394,0.3365,0.3344,0.334,0.3381,0.3381,0.3381,0,0.2639,0.2694,0.2751,0.2832,0.2853,0.2883,0.2948,0.299,0.3056,0.3088,0.3134,0.3181,0.3227,0.3247,0.3311,0.3305,0.3335,0.3366,0.3368,0.3377,0.3397,0.3373,0.3341,0.334,0.3383,0.3383,0.3383,0,0.2589,0.2677,0.2723,0.2754,0.285,0.287,0.2911,0.2977,0.3012,0.3069,0.3093,0.3154,0.3187,0.3234,0.3296,0.3305,0.3354,0.3379,0.3382,0.3381,0.339,0.3389,0.3362,0.3409,0.3409,0.3409,0.3409,0,0.2576,0.2609,0.2702,0.2729,0.2768,0.2836,0.2872,0.2918,0.2976,0.3015,0.3072,0.3107,0.3186,0.3231,0.328,0.3325,0.334,0.3368,0.3381,0.3363,0.3359,0.3384,0.3386,0.3409,0.3409,0.3409,0.3409,0,0.2527,0.2591,0.2644,0.273,0.2753,0.2777,0.2851,0.2881,0.293,0.2978,0.2993,0.3071,0.3126,0.3192,0.327,0.3302,0.3344,0.3363,0.3321,0.3328,0.3328,0.3327,0.3316,0.3318,0.3362,0.3362,0.3361,0,0.2515,0.2541,0.263,0.2659,0.2698,0.2745,0.2781,0.2849,0.2884,0.296,0.2981,0.304,0.3091,0.3177,0.3241,0.33,0.332,0.3313,0.333,0.3311,0.332,0.3318,0.3321,0.3308,0.3307,0.3306,0.3306,0,0.2487,0.2517,0.2566,0.2626,0.2667,0.2718,0.2771,0.2792,0.2871,0.2908,0.2964,0.3004,0.3082,0.314,0.3207,0.325,0.3291,0.33,0.3304,0.3286,0.3261,0.3274,0.3308,0.33,0.3301,0.3301,0.3301,0.3302,0.2456,0.2482,0.2548,0.2601,0.2648,0.2696,0.2728,0.2781,0.2829,0.2897,0.2935,0.299,0.3055,0.3149,0.319,0.3235,0.325,0.3255,0.3257,0.3257,0.3252,0.3253,0.3248,0.3248,0.3248,0.3248,0.3249,0,0.2431,0.2476,0.2524,0.2596,0.2638,0.2672,0.2732,0.2765,0.2813,0.287,0.2918,0.2983,0.304,0.3107,0.3168,0.3191,0.3211,0.3205,0.3204,0.3213,0.3235,0.3226,0.3187,0.3187,0.3187,0.3187,0.3187,0.3187,0.2422,0.2468,0.2505,0.2575,0.262,0.2675,0.2706,0.2751,0.2797,0.2866,0.2913,0.2956,0.3018,0.3083,0.3136,0.3155,0.3175,0.3162,0.3186,0.3206,0.3211,0.3216,0.3208,0.3166,0.3166,0.316,0.316,0.316]},{"header":{"parameterUnit":"m.s-1","parameterCategory":1,"la1":30.2991,"la2":30.254,"lo1":-89.0895,"lo2":-89.0444,"dy":0.0017,"dx":0.0017,"nx":28,"ny":28,"refTime":"2023-10-05T21:00:00:Z","depth":0,"parameterNumber":3,"parameterNumberName":"V-component_of_WINDS"},"data":[0,0,0,0,0,0,0,0,0,0,0,0,0,0,0,0,0,0,0,0,0,0,0,0,0,0,0,0,0,0,0,0,0,0,0,0,0,0,0,0,0,0,0,0,0,0,0,0,0,0,0,0,0,0,0,0,0,0,1.8397,1.8396,0,1.8389,1.8389,1.8389,1.8373,1.8372,1.8372,1.8372,1.836,1.836,1.836,0,0,0,0,0,0,0,0,0,0,0,0,0,1.8388,1.8388,1.8397,1.8396,1.8396,1.8389,1.8389,1.8389,1.8373,1.8372,1.8372,1.8372,1.836,1.836,1.836,0,0,0,0,0,0,0,0,0,0,0,0,0,1.8387,1.8388,1.8397,1.8388,1.8387,1.8389,1.8389,1.8389,1.8373,1.8372,1.8372,1.8371,1.836,1.836,1.836,1.8369,0,0,1.8359,1.8359,0,0,0,0,0,0,0,0,1.8387,1.8387,1.8389,1.8388,1.8387,1.8381,1.8381,1.8382,1.8373,1.8378,1.8372,1.8371,1.8367,1.8366,1.8366,1.8368,1.8367,1.8359,1.8359,1.8359,1.8359,0,0,0,0,0,0,0,1.8387,1.8387,1.8393,1.8389,1.8388,1.8381,1.838,1.8381,1.8375,1.8377,1.8376,1.8376,1.8366,1.8366,1.8365,1.8367,1.8359,1.8359,1.8359,1.8359,1.8368,1.8368,0,0,0,0,0,0,1.8389,1.8388,1.8394,1.8393,1.8386,1.8381,1.8381,1.8384,1.8375,1.8373,1.8376,1.8375,1.8366,1.8365,1.8365,1.837,1.8359,1.8359,1.8359,1.8367,1.8368,1.8368,0,0,0,0,0,0,1.8389,1.839,1.8394,1.839,1.839,1.8382,1.8385,1.8384,1.8383,1.8374,1.8372,1.8378,1.8366,1.8365,1.8366,1.8369,1.8359,1.8359,1.8367,1.8368,1.8368,1.8383,0,0,0,0,0,0,1.8389,1.839,1.8397,1.839,1.839,1.8399,1.8386,1.8384,1.8384,1.8382,1.8375,1.8373,1.8365,1.8366,1.8366,1.8369,1.8359,1.8367,1.8367,1.8368,1.8382,1.8384,1.8385,0,0,0,0,0,1.8389,1.8402,1.8397,1.8398,1.8398,1.8399,1.8399,1.8391,1.8384,1.8388,1.8381,1.8373,1.8369,1.8367,1.8366,1.8369,1.8367,1.8367,1.8368,1.8381,1.8383,1.8385,0,0,0,0,0,0,1.8409,1.8401,1.8396,1.8408,1.8404,1.8396,1.8402,1.8394,1.8392,1.839,1.8379,1.8377,1.8378,1.8374,1.8371,1.8373,1.8366,1.8366,1.8376,1.8378,1.838,1.838,1.8359,0,0,0,0,0,1.8415,1.8418,1.841,1.8421,1.8419,1.8411,1.8411,1.8404,1.84,1.8398,1.8391,1.8385,1.8381,1.838,1.8377,1.8381,1.8376,1.8382,1.8383,1.8385,1.8385,1.838,1.8381,1.837,1.837,1.837,0,0,1.8427,1.8423,1.8426,1.8425,1.8421,1.8421,1.841,1.8412,1.8411,1.8398,1.8398,1.8392,1.8384,1.8385,1.8385,1.8381,1.8386,1.8385,1.8386,1.8386,1.8381,1.8382,1.8383,1.837,1.837,1.837,0,0,1.8448,1.8448,1.8454,1.8449,1.8443,1.8436,1.8437,1.8429,1.8425,1.8424,1.8412,1.8409,1.8405,1.8398,1.8394,1.8404,1.8395,1.8403,1.8411,1.8406,1.8407,1.8408,1.8407,1.8407,1.8403,1.8403,1.8403,0,1.8464,1.8466,1.8458,1.8459,1.8456,1.8443,1.8445,1.8441,1.8434,1.8431,1.8427,1.8416,1.8411,1.8407,1.8408,1.8407,1.8404,1.8404,1.8408,1.8408,1.8409,1.8408,1.8408,1.8404,1.8404,1.8404,1.8404,0,1.8482,1.8483,1.8488,1.8481,1.8478,1.8481,1.8468,1.8466,1.8458,1.8449,1.8445,1.8437,1.8428,1.8427,1.842,1.842,1.8417,1.8411,1.8403,1.8411,1.8409,1.8409,1.8405,1.8405,1.8405,1.8404,0,0,1.852,1.8503,1.8505,1.8498,1.8487,1.8486,1.8485,1.8477,1.8473,1.8466,1.8462,1.8455,1.8447,1.8442,1.8433,1.8429,1.8431,1.8422,1.8422,1.8421,1.8424,1.8427,1.8428,1.8425,1.8425,1.8425,1.8423,0,1.8537,1.8536,1.8524,1.8524,1.8521,1.8506,1.8503,1.8494,1.8485,1.8478,1.8467,1.8461,1.8453,1.8449,1.8444,1.8432,1.8431,1.8432,1.8417,1.8416,1.8418,1.8428,1.8433,1.8432,1.8423,1.8423,1.8423,0,1.8558,1.855,1.855,1.8533,1.8532,1.853,1.8518,1.8514,1.85,1.8493,1.8484,1.8473,1.8465,1.8458,1.8445,1.8446,1.8438,1.843,1.8429,1.8427,1.842,1.8422,1.8433,1.8431,1.8423,1.8423,1.8423,0,1.8579,1.857,1.8567,1.8562,1.8544,1.8542,1.8533,1.852,1.8513,1.8502,1.8496,1.8484,1.8477,1.8466,1.8449,1.8447,1.8435,1.8429,1.8426,1.8426,1.8424,1.8425,1.8431,1.8423,1.8423,1.8423,1.8423,0,1.8598,1.8597,1.8575,1.8574,1.857,1.8555,1.8551,1.8541,1.8527,1.852,1.8505,1.8498,1.8478,1.8467,1.8454,1.8441,1.8439,1.843,1.8426,1.8431,1.8431,1.8425,1.8423,1.8423,1.8423,1.8423,1.8423,0,1.8622,1.8608,1.8603,1.8584,1.8579,1.8577,1.8559,1.8554,1.8542,1.8532,1.8528,1.8509,1.8494,1.8477,1.8457,1.8448,1.8436,1.8432,1.844,1.8438,1.8435,1.8434,1.8436,1.8433,1.8429,1.8429,1.8429,0,1.8634,1.8633,1.8612,1.8606,1.8598,1.859,1.8582,1.8564,1.8556,1.8537,1.8533,1.8518,1.8504,1.8481,1.8463,1.8446,1.844,1.8441,1.8437,1.8439,1.8435,1.8435,1.8432,1.8442,1.8442,1.8442,1.8442,0,1.8655,1.8646,1.8637,1.8623,1.8614,1.8602,1.859,1.8585,1.8564,1.8555,1.854,1.8529,1.8507,1.849,1.8469,1.8457,1.8444,1.8443,1.8441,1.8445,1.8449,1.8443,1.8441,1.8444,1.8444,1.8443,1.8443,1.8443,1.8671,1.8667,1.865,1.8638,1.8626,1.8613,1.8606,1.8591,1.8579,1.856,1.8549,1.8533,1.8513,1.8484,1.8472,1.8456,1.8452,1.845,1.8449,1.8448,1.8448,1.8452,1.8453,1.8453,1.8453,1.8453,1.8453,0,1.8688,1.8675,1.8664,1.8646,1.8634,1.8624,1.8607,1.8598,1.8584,1.8567,1.8553,1.8532,1.8514,1.8493,1.8472,1.8464,1.8457,1.8458,1.8458,1.8454,1.8455,1.8457,1.8464,1.8464,1.8464,1.8464,1.8464,1.8464,1.8695,1.8685,1.8674,1.8656,1.8643,1.8627,1.8618,1.8604,1.859,1.8567,1.8552,1.8538,1.8518,1.8495,1.8476,1.8469,1.8461,1.8464,1.8456,1.8456,1.8455,1.8454,1.8456,1.8463,1.8463,1.8456,1.8456,1.8456]}]]